Location: Saratoga Springs
(43.0831°N, 73.7850°W)
Time: 01:02:39
(UTC-04:00)

Vanguard 2 Rocket - Pass Details

Date: 23 April 2024
Orbit: 556 x 3304 km, 32.9° (Epoch: 18 May)

Event Time Altitude Azimuth Distance (km) Brightness Sun altitude
Rises 02:25:12 0° 276° (W) 7,082 11.3 -30.4°
Reaches altitude 10° 02:30:04 10° 271° (W) 6,196 10.9 -30.0°
Maximum altitude 02:48:26 46° 208° (SSW) 3,827 9.5 -28.3°
Drops below altitude 10° 03:03:18 10° 141° (SE) 5,073 10.5 -26.8°
Sets 03:06:51 0° 135° (SE) 5,757 10.9 -26.4°
